Weather History for Blythe, CA

Change the Weather History Date:

Thursday, November 1, 2012

  Actual Average Record
Temperature  
Mean Temperature 70 °F -  
Max Temperature 89 °F 78 °F 95 °F (1997)
Min Temperature 51 °F 52 °F 43 °F (1971)
Cooling Degree Days 4    
Growing Degree Days 20 (Base 50)    
Moisture  
Dew Point 28 °F    
Average Humidity 22    
Maximum Humidity 39    
Minimum Humidity 12    
Precipitation  
Precipitation 0.00 in - - ()
Sea Level Pressure  
Sea Level Pressure 29.87 in    
Wind  
Wind Speed 5 mph (SW)    
Max Wind Speed 9 mph    
Max Gust Speed -    
Visibility 10 miles    
Events      
Averages and records for this station are not official NWS values.
T = Trace of Precipitation, MM = Missing Value Source: NWS Daily Summary

Daily Weather History Graph

Daily Weather History Graph

Search for Another Location

Airport:

Trip Planner

Search our weather history database for the weather conditions in past years. The results will help you decide how hot, cold, wet, or windy it might be!

Date:

Astronomy

Nov. 01, 2012 Rise Set
Actual Time 6:58 AM PDT 5:46 PM PDT
Civil Twilight 6:32 AM PDT 6:11 PM PDT
Nautical Twilight 6:03 AM PDT 6:41 PM PDT
Astronomical Twilight 5:33 AM PDT 7:10 PM PDT
Moon 7:52 PM PDT (11/1) 9:28 AM PDT (11/1)
Length of Visible Light 11h 39m
Length of Day
10h 47m
Waning Gibbous, 92% of the Moon is Illuminated
Nov 1
Waning Gibbous
Nov 6
Last Quarter
Nov 13
New
Nov 20
First Quarter
Nov 28
Full

Hourly Weather History & Observations

Time (PDT) Temp. Dew Point Humidity Pressure Visibility Wind Dir Wind Speed Gust Speed Precip Events Conditions
12:52 AM 60.1 °F 23.0 °F 24% 29.89 in 10.0 mi NNW 5.8 mph - N/A   Clear
1:52 AM 57.0 °F 21.0 °F 25% 29.89 in 10.0 mi North 8.1 mph - N/A   Clear
2:52 AM 55.9 °F 21.9 °F 27% 29.89 in 10.0 mi North 4.6 mph - N/A   Clear
3:52 AM 55.0 °F 23.0 °F 29% 29.88 in 10.0 mi North 3.5 mph - N/A   Clear
4:52 AM 55.0 °F 23.0 °F 29% 29.88 in 10.0 mi NNW 8.1 mph - N/A   Clear
5:52 AM 55.9 °F 25.0 °F 30% 29.89 in 10.0 mi NNW 5.8 mph - N/A   Clear
6:52 AM 51.1 °F 27.0 °F 39% 29.90 in 10.0 mi Calm Calm - N/A   Clear
7:52 AM 55.9 °F 26.1 °F 32% 29.92 in 10.0 mi Calm Calm - N/A   Clear
8:52 AM 62.1 °F 30.0 °F 30% 29.93 in 10.0 mi SSW 3.5 mph - N/A   Clear
9:52 AM 68.0 °F 30.9 °F 25% 29.94 in 10.0 mi South 4.6 mph - N/A   Clear
10:52 AM 70.0 °F 36.0 °F 29% 29.94 in 10.0 mi SE 3.5 mph - N/A   Clear
11:52 AM 75.9 °F 35.1 °F 23% 29.91 in 10.0 mi Calm Calm - N/A   Clear
12:52 PM 80.1 °F 35.1 °F 20% 29.88 in 10.0 mi South 4.6 mph - N/A   Clear
1:52 PM 84.0 °F 33.1 °F 16% 29.85 in 10.0 mi South 4.6 mph - N/A   Clear
2:52 PM 87.1 °F 28.9 °F 12% 29.83 in 10.0 mi South 6.9 mph - N/A   Clear
3:52 PM 87.1 °F 30.9 °F 13% 29.81 in 10.0 mi South 4.6 mph - N/A   Clear
4:52 PM 88.0 °F 30.0 °F 12% 29.81 in 10.0 mi Variable 4.6 mph - N/A   Clear
5:52 PM 82.9 °F 33.1 °F 17% 29.81 in 10.0 mi South 6.9 mph - N/A   Clear
6:52 PM 81.0 °F 27.0 °F 14% 29.82 in 10.0 mi SSW 9.2 mph - N/A   Clear
7:52 PM 79.0 °F 27.0 °F 15% 29.82 in 10.0 mi SSW 6.9 mph - N/A   Clear
8:52 PM 75.9 °F 26.1 °F 16% 29.83 in 10.0 mi West 4.6 mph - N/A   Clear
9:52 PM 73.0 °F 28.0 °F 19% 29.83 in 10.0 mi Calm Calm - N/A   Clear
10:52 PM 73.9 °F 28.9 °F 19% 29.84 in 10.0 mi Calm Calm - N/A   Clear